Flag for South Africa Weather past 2 weeks in Pretoria, South Africa

Now
81 °F

Sunny.


Feels Like: 79 °F
Forecast: 56 / 86 °F
Wind: 7 mph from Northwest

Location: Waterkloof Lmb

Current Time: Aug 28, 2015 at 3:16:22 PM

Latest Report: Aug 28, 2015 at 2:00 PM


Visibility: 10 mi

Pressure: 30.21 "Hg (25.94 "Hg at 1338m altitude)

Humidity: 23%

Dew point: 39 °F

Location of PretoriaLocation

Historic Weather in Pretoria — Graph

°F

Pretoria temperature yesterday

Maximum temperature yesterday: 81 °F (at 3:00 PM)
Minimum temperature yesterday: 54 °F (at 6:00 AM)
Average temperature yesterday: 67 °F

Past Weeks' High & Low Weather Summary

 TemperatureHumidityPressure
High82 °F (Aug 26, 3:00 PM)82% (Aug 21, 7:00 AM)30.54 "Hg (Aug 21, 7:00 AM)
Low41 °F (Aug 14, 6:00 AM)8% (Aug 14, 4:00 PM)30.12 "Hg (Aug 13, 2:00 PM)
Average65 °F35%30.30 "Hg
* Reported Aug 13 2:00 PM — Aug 28 2:00 PM, Pretoria, Weather by CustomWeather, © 2015

Note: Actual official high and low records may vary slightly from our data, if they occured in-between our weather recording intervals... More about our weather records

Advertising

Pretoria weather history for previous 24 hours

 ConditionsComfort  
Time TempWeatherWind HumidityBarometerVisibility
2:00 PM
Fri, Aug 28
81 °FPleasantly warm.7 mph23%30.21 "HgN/A
1:00 PM79 °FPleasantly warm.8 mph24%30.24 "HgN/A
12:00 PM79 °FPleasantly warm.7 mph30%30.30 "HgN/A
11:00 AM75 °FMild.7 mph34%30.30 "HgN/A
10:00 AM72 °FMild.5 mph36%30.30 "HgN/A
9:00 AM68 °FMild.5 mph43%30.30 "HgN/A
8:00 AM61 °FRefreshingly cool.No wind55%30.27 "HgN/A
7:00 AM52 °FCool.1 mph67%30.27 "HgN/A
6:00 AM52 °FCool.2 mph67%30.24 "HgN/A
5:00 AM52 °FCool.2 mph62%30.24 "HgN/A
4:00 AM55 °FRefreshingly cool.3 mph51%30.24 "HgN/A
3:00 AM61 °FRefreshingly cool.3 mph42%30.24 "HgN/A
2:00 AM57 °FRefreshingly cool.3 mph48%30.24 "HgN/A
1:00 AM61 °FRefreshingly cool.6 mph42%30.24 "HgN/A
12:00 AM57 °FRefreshingly cool.3 mph48%30.24 "HgN/A
11:00 PM
Thu, Aug 27
64 °FMild.1 mph34%30.27 "HgN/A
10:00 PM63 °FMild.1 mph37%30.27 "HgN/A
9:00 PM66 °FMild.2 mph32%30.27 "HgN/A
8:00 PM66 °FMild.2 mph32%30.27 "HgN/A
7:00 PM68 °FMild.5 mph30%30.24 "HgN/A
6:00 PM73 °FMild.5 mph25%30.24 "HgN/A
5:00 PM79 °FPleasantly warm.5 mph20%30.21 "HgN/A
4:00 PM81 °FPleasantly warm.1 mph18%30.21 "HgN/A
3:00 PM81 °FPleasantly warm.1 mph18%30.21 "HgN/A
Weather by CustomWeather, © 2015

See weather overviewHow to use our weather pages